• Join FlightAware (Why Join?)
  • Login
  • US Flag 
06:23PM EST


 

Airport Tracker/Info


-or-


 

Live Flight TrackerFlight Track Log ✈ N102WY ✈ 10-Jul-2013 ✈ KTOR - KWRL

Flight Track Log - Related Links

Times and Time Zones

All times are in EDT time to prevent confusion due to time zone crossing. See the N102WY flight status page for this flight to view local times or setup timezone preferences in your user account.

Time Position Orientation Groundspeed Altitude Reporting Facility
EDT Latitude Longitude Course Direction KTS MPH feet Rate Location/Type
02:12PM 42.1200 -104.1361 310° West 263 303 8,200  Level Denver Center
02:13PM 42.1647 -104.2089 310° West 265 305 11,300 3,000 Climbing Denver Center
02:14PM 42.2225 -104.2589 327° Northwest 259 298 14,400 3,145 Climbing Denver Center
02:15PM 42.2906 -104.3181 327° Northwest 259 298 17,800 2,903 Climbing Denver Center
02:16PM 42.3517 -104.3722 327° Northwest 268 308 20,400 2,758 Climbing Denver Center
02:17PM 42.4089 -104.4600 311° West 275 316 23,500 2,613 Climbing Denver Center
02:18PM 42.4628 -104.5347 314° West 282 325 25,800 2,177 Climbing Denver Center
02:19PM 42.5231 -104.6350 309° West 302 348 28,000 1,935 Climbing Denver Center
02:20PM 42.5708 -104.7361 303° West 321 369 29,800 968 Climbing Denver Center
02:21PM 42.6172 -104.8364 302° West 323 372 30,000 88 Climbing Denver Center
02:23PM 42.6694 -104.9553 301° West 326 375 30,000  Level Denver Center
02:24PM 42.7289 -105.0917 301° West 327 376 30,000  Level Denver Center
02:25PM 42.7731 -105.1939 301° West 327 376 30,000  Level Denver Center
02:26PM 42.8161 -105.2956 300° West 325 374 30,000  Level Denver Center
02:27PM 42.8669 -105.4144 300° West 325 374 30,000  Level Denver Center
02:28PM 42.9119 -105.5181 301° West 331 381 30,000  Level Denver Center
02:29PM 42.9617 -105.6311 301° West 312 359 30,000  Level Denver Center
02:30PM 43.0003 -105.7264 299° West 302 348 30,000 -48 Level Denver Center
02:31PM 43.0467 -105.8389 299° West 307 353 29,900 -387 Descending Denver Center
02:32PM 43.0900 -105.9389 301° West 317 365 29,200 -823 Descending Denver Center
02:33PM 43.1347 -106.0461 300° West 289 333 28,200 -919 Descending Denver Center
02:34PM 43.1714 -106.1328 300° West 278 320 27,300 -919 Descending Denver Center
02:35PM 43.2117 -106.2319 299° West 268 308 26,300 -968 Descending Denver Center
02:36PM 43.2483 -106.3178 300° West 270 311 25,300 -919 Descending Denver Center
02:37PM 43.2842 -106.4053 299° West 276 318 24,400 -968 Descending Denver Center
02:38PM 43.3236 -106.5128 297° West 282 325 23,300 -1,016 Descending Denver Center
02:39PM 43.3592 -106.6061 298° West 285 328 22,300 -1,065 Descending Denver Center
02:40PM 43.3989 -106.7050 299° West 266 306 21,100 -1,065 Descending Denver Center
02:41PM 43.4322 -106.7872 299° West 258 297 20,100 -1,113 Descending Denver Center
02:42PM 43.4708 -106.8806 300° West 257 296 18,800 -1,161 Descending Denver Center
02:43PM 43.5042 -106.9661 298° West 254 292 17,700 -1,113 Descending Denver Center
02:44PM 43.5364 -107.0558 296° West 261 300 16,500 -1,327 Descending Denver Center
02:45PM 43.5647 -107.1267 299° West 262 302 15,400 -1,327 Descending Salt Lake Center
02:46PM 43.5928 -107.2167 293° West 258 297 14,200 -1,161 Descending Salt Lake Center
02:47PM 43.6317 -107.3017 302° West 260 299 13,000 -1,452 Descending Salt Lake Center
02:48PM 43.6664 -107.3833 300° West 255 293 11,200 -968 Descending Salt Lake Center
02:49PM 43.7150 -107.4369 321° Northwest 251 289 11,000 -242 Descending Salt Lake Center
02:50PM 43.7772 -107.4678 340° North 242 278 10,700 -290 Descending Salt Lake Center